Satellite: NANOSALD
Catalog number: 37361
Epoch time:      11110.36481897
Element set:    0151
Inclination:      071.9680 deg
RA of node:       165.1694 deg
Eccentricity:    0.0030956
Arg of perigee:   307.9349 deg
Mean anomaly:     051.8894 deg
Mean motion:   14.90115572 rev/day
Decay rate:     9.7261e-04 rev/day^2
Epoch rev:           01348
Checksum:              316

Satellite: FAST2
Catalog number: 37380
Epoch time:      11111.42537182
Element set:    0144
Inclination:      071.9743 deg
RA of node:       164.4598 deg
Eccentricity:    0.0016851
Arg of perigee:   018.8949 deg
Mean anomaly:     341.2790 deg
Mean motion:   14.76325854 rev/day
Decay rate:       2.45e-06 rev/day^2
Epoch rev:           02248
Checksum:              304

/EX
SB KEPS @ AMSAT  $ORB11111.W
Orbital Elements  11111.WEATHER

HR AMSAT ORBITAL ELEMENTS FOR WEATHER SATELLITES
FROM WA5QGD FORT WORTH,TX April 21, 2011
Send Subscribe/unsubscribe to KEPS at http://www.amsat.org/mailman/listinfo/kep
BID: ORB11111.W
TO ALL RADIO AMATEURS BT

Satellite: NOAA-10
Catalog number: 16969
Epoch time:      11110.94278094
Element set:    0481
Inclination:      098.6228 deg
RA of node:       141.4947 deg
Eccentricity:    0.0012964
Arg of perigee:   035.6592 deg
Mean anomaly:     324.5453 deg
Mean motion:   14.27455228 rev/day
Decay rate:        2.2e-07 rev/day^2
Epoch rev:           27948
Checksum:              320

Satellite: NOAA-11
Catalog number: 19531
Epoch time:      11110.77972528
Element set:    0477
Inclination:      098.7514 deg
RA of node:       199.3283 deg
Eccentricity:    0.0011366
Arg of perigee:   356.5299 deg
Mean anomaly:     003.5788 deg
Mean motion:   14.14912850 rev/day
Decay rate:       1.87e-06 rev/day^2
Epoch rev:           16463
Checksum:              327

Satellite: NOAA-12
Catalog number: 21263
Epoch time:      11110.95997748
Element set:    0982
Inclination:      098.7542 deg
RA of node:       128.8998 deg
Eccentricity:    0.0012548
Arg of perigee:   357.8717 deg
Mean anomaly:     002.2410 deg
Mean motion:   14.25703040 rev/day
Decay rate:       1.15e-06 rev/day^2
Epoch rev:           03625
Checksum:              304

Satellite: MET-3/5
Catalog number: 21655
Epoch time:      11111.53730679
Element set:      91
Inclination:      082.5527 deg
RA of node:       090.7978 deg
Eccentricity:    0.0012431
Arg of perigee:   302.9916 deg
Mean anomaly:     057.0042 deg
Mean motion:   13.17026083 rev/day
Decay rate:        5.1e-07 rev/day^2
Epoch rev:           94626
Checksum:              285

Satellite: MET-2/21
Catalog number: 22782
Epoch time:      11110.76761730
Element set:    0076
Inclination:      082.5516 deg
RA of node:       008.4365 deg
Eccentricity:    0.0020898
Arg of perigee:   260.0835 deg
Mean anomaly:     099.7964 deg
Mean motion:   13.83658121 rev/day
Decay rate:       -6.0e-08 rev/day^2
Epoch rev:           89061
Checksum:              309

Satellite: OKEAN-4
Catalog number: 23317
Epoch time:      11110.94996146
Element set:    0572
Inclination:      082.5386 deg
RA of node:       066.5784 deg
Eccentricity:    0.0020868
Arg of perigee:   311.7593 deg
Mean anomaly:     048.1834 deg
Mean motion:   14.83024700 rev/day
Decay rate:       6.56e-06 rev/day^2
Epoch rev:           89206
Checksum:              316

Satellite: NOAA-14
Catalog number: 23455
Epoch time:      11110.92439483
Element set:    0469
Inclination:      098.8524 deg
RA of node:       194.1257 deg
Eccentricity:    0.0010320
Arg of perigee:   082.1391 deg
Mean anomaly:     278.0952 deg
Mean motion:   14.13814507 rev/day
Decay rate:        2.0e-07 rev/day^2
Epoch rev:           84098
Checksum:              293

Satellite: NOAA-15
Catalog number: 25338
Epoch time:      11111.07664369
Element set:     786
Inclination:      098.6509 deg
RA of node:       098.0132 deg
Eccentricity:    0.0009708
Arg of perigee:   259.1389 deg
Mean anomaly:     100.8699 deg
Mean motion:   14.24903124 rev/day
Decay rate:       1.43e-06 rev/day^2
Epoch rev:           67259
Checksum:              325

Satellite: RESURS
Catalog number: 25394
Epoch time:      11110.92110017
Element set:    0791
Inclination:      098.2997 deg
RA of node:       117.0988 deg
Eccentricity:    0.0002412
Arg of perigee:   050.9427 deg
Mean anomaly:     309.1967 deg
Mean motion:   14.24230258 rev/day
Decay rate:        2.8e-07 rev/day^2
Epoch rev:           66415
Checksum:              287

Satellite: FENGYUN1
Catalog number: 25730
Epoch time:      11110.92007331
Element set:     306
Inclination:      098.8158 deg
RA of node:       073.3828 deg
Eccentricity:    0.0024480
Arg of perigee:   108.6986 deg
Mean anomaly:     251.6824 deg
Mean motion:   14.08594402 rev/day
Decay rate:       6.31e-06 rev/day^2
Epoch rev:           61500
Checksum:              278

Satellite: OKEAN-0
Catalog number: 25860
Epoch time:      11110.92718843
Element set:    0303
Inclination:      097.8785 deg
RA of node:       078.9674 deg
Eccentricity:    0.0001320
Arg of perigee:   100.6408 deg
Mean anomaly:     259.4949 deg
Mean motion:   14.73759079 rev/day
Decay rate:       3.23e-06 rev/day^2
Epoch rev:           63222
Checksum:              310

